Location: Port Townsend
(48.1170°N, 122.7590°W)
Time: 07:58:58
(UTC-07:00)

Envisat - Visible Passes

Search period start: 15 October 2018 00:00
Search period end: 25 October 2018 00:00
Orbit: 764 x 766 km, 98.2° (Epoch: 15 October)

Date Brightness Start Highest point End Pass type
(mag) Time Alt. Az. Time Alt. Az. Time Alt. Az.
15 Oct 3.3 19:24:14 10° SE 19:29:03 45° ENE 19:33:53 10° N visible
15 Oct 5.0 21:03:58 10° SSW 21:08:15 27° W 21:12:33 10° NW visible
16 Oct 4.1 18:48:36 10° ESE 18:52:36 24° ENE 18:56:36 10° N visible
16 Oct 3.7 20:26:18 10° S 20:31:17 55° W 20:36:17 10° NNW visible
17 Oct 2.9 19:49:26 10° SSE 19:54:30 74° ENE 19:59:36 10° N visible
17 Oct 5.6 21:30:56 10° SW 21:34:05 16° W 21:37:16 10° NW visible
18 Oct 3.5 19:13:17 10° SE 19:17:55 37° ENE 19:22:35 10° N visible
18 Oct 4.6 20:52:25 10° SSW 20:56:58 33° W 21:01:34 10° NNW visible
19 Oct 3.3 20:15:01 10° S 20:20:04 68° WSW 20:25:09 10° NNW visible
20 Oct 3.0 19:38:21 10° SSE 19:43:21 60° ENE 19:48:22 10° N visible
20 Oct 5.4 21:19:03 10° SW 21:22:47 20° W 21:26:31 10° NW visible
21 Oct 3.8 19:02:25 10° SE 19:06:49 31° ENE 19:11:15 10° N visible
21 Oct 4.2 20:40:57 10° SSW 20:45:43 41° W 20:50:32 10° NNW visible
22 Oct 3.0 20:03:47 10° SSE 20:08:52 84° WSW 20:13:59 10° NNW visible
22 Oct 5.9 21:46:48 10° WSW 21:48:41 12° W 21:50:36 10° WNW visible
23 Oct 3.2 19:27:20 10° SE 19:32:12 49° ENE 19:37:06 10° N visible
23 Oct 5.1 21:07:21 10° SSW 21:11:28 25° W 21:15:39 10° NW visible
24 Oct 4.0 18:51:37 10° ESE 18:55:45 26° ENE 18:59:53 10° N visible
24 Oct 3.8 20:29:33 10° S 20:34:29 50° W 20:39:27 10° NNW visible
